When you browse on this site, cookies collect data to enhance your experience and personalize the content and advertising you see.
Visit our Privacy Policy to learn more. By continuing to use the site, you agree to this use of cookies and data.
  • In United Kingdom
  • List of Countries
  • For 7 days
  • Water Temperature
  • Weather Map
  • Weather Widgets
  • user-avatar
    Login

    Hourly Weather Brikama

    Today, 19 August, Monday

    Time Temperature Precipitation Wind Pressure Humidity
    00:00 +27°C° 0.1 mm 4 mps 757 mmHg 90%
    01:00 +27°C° 0.1 mm 4 mps 757 mmHg 90%
    02:00 +27°C° 0.1 mm 4 mps 756 mmHg 90%
    03:00 +27°C° 0.1 mm 4 mps 756 mmHg 90%
    04:00 +27°C° 0.1 mm 4 mps 756 mmHg 89%
    05:00 +27°C° 0.1 mm 3 mps 756 mmHg 89%
    06:00 +27°C° 0 mm 3 mps 756 mmHg 88%
    07:00 +27°C° 0 mm 3 mps 757 mmHg 87%
    08:00 +28°C° 0 mm 2 mps 757 mmHg 86%
    09:00 +29°C° 0 mm 2 mps 757 mmHg 82%
    10:00 +29°C° 0 mm 2 mps 757 mmHg 78%
    11:00 +30°C° 0 mm 2 mps 757 mmHg 74%
    12:00 +30°C° 0.8 mm 2 mps 757 mmHg 76%
    13:00 +29°C° 0.8 mm 3 mps 757 mmHg 79%
    14:00 +29°C° 0.8 mm 3 mps 756 mmHg 81%
    15:00 +28°C° 4 mm 3 mps 756 mmHg 84%
    16:00 +27°C° 4 mm 3 mps 756 mmHg 88%
    17:00 +27°C° 4 mm 3 mps 755 mmHg 91%
    18:00 +27°C° 0.2 mm 3 mps 756 mmHg 91%
    19:00 +27°C° 0.2 mm 3 mps 756 mmHg 90%
    20:00 +27°C° 0.2 mm 2 mps 757 mmHg 90%
    21:00 +27°C° 0 mm 2 mps 757 mmHg 90%
    22:00 +27°C° 0 mm 2 mps 757 mmHg 89%
    23:00 +27°C° 0 mm 1 mps 757 mmHg 89%

    Tomorrow, 20 August, Tuesday

    Time Temperature Precipitation Wind Pressure Humidity
    00:00 +27°C° 0.1 mm 2 mps 757 mmHg 89%
    01:00 +27°C° 0.1 mm 2 mps 756 mmHg 89%
    02:00 +27°C° 0.1 mm 2 mps 756 mmHg 89%
    03:00 +27°C° 1.1 mm 2 mps 756 mmHg 89%
    04:00 +26°C° 1.1 mm 1 mps 756 mmHg 90%
    05:00 +26°C° 1.1 mm 1 mps 755 mmHg 90%
    06:00 +27°C° 0.1 mm 1 mps 756 mmHg 88%
    07:00 +27°C° 0.1 mm 1 mps 756 mmHg 85%
    08:00 +28°C° 0.1 mm 1 mps 757 mmHg 83%
    09:00 +29°C° 0 mm 1 mps 757 mmHg 78%
    10:00 +30°C° 0 mm 2 mps 757 mmHg 72%
    11:00 +32°C° 0 mm 2 mps 757 mmHg 67%
    12:00 +33°C° 0.2 mm 3 mps 756 mmHg 67%
    13:00 +33°C° 0.2 mm 3 mps 756 mmHg 67%
    14:00 +33°C° 0.2 mm 4 mps 755 mmHg 67%
    15:00 +32°C° 0.2 mm 4 mps 755 mmHg 71%
    16:00 +30°C° 0.2 mm 4 mps 755 mmHg 74%
    17:00 +30°C° 0.2 mm 4 mps 754 mmHg 77%
    18:00 +29°C° 0 mm 4 mps 755 mmHg 79%
    19:00 +29°C° 0 mm 4 mps 756 mmHg 81%
    20:00 +28°C° 0 mm 4 mps 756 mmHg 83%
    21:00 +28°C° 0 mm 4 mps 756 mmHg 84%
    22:00 +28°C° 0 mm 3 mps 757 mmHg 85%
    23:00 +28°C° 0 mm 3 mps 757 mmHg 86%

    Day after tomorrow, 21 August, Wednesday

    Time Temperature Precipitation Wind Pressure Humidity
    00:00 +28°C° 0 mm 4 mps 757 mmHg 86%
    01:00 +28°C° 0 mm 4 mps 756 mmHg 86%
    02:00 +28°C° 0 mm 4 mps 756 mmHg 86%
    03:00 +28°C° 0.2 mm 4 mps 756 mmHg 87%
    04:00 +27°C° 0.2 mm 3 mps 756 mmHg 87%
    05:00 +27°C° 0.2 mm 3 mps 756 mmHg 88%
    06:00 +28°C° 0.3 mm 3 mps 756 mmHg 86%
    07:00 +28°C° 0.3 mm 3 mps 756 mmHg 83%
    08:00 +29°C° 0.3 mm 4 mps 757 mmHg 80%
    09:00 +30°C° 0.9 mm 4 mps 757 mmHg 77%
    10:00 +32°C° 0.9 mm 4 mps 757 mmHg 73%
    11:00 +32°C° 0.9 mm 4 mps 757 mmHg 70%
    12:00 +32°C° 0.6 mm 4 mps 756 mmHg 73%
    13:00 +30°C° 0.6 mm 4 mps 755 mmHg 77%
    14:00 +29°C° 0.6 mm 4 mps 755 mmHg 80%
    15:00 +29°C° 0.3 mm 4 mps 755 mmHg 82%
    16:00 +28°C° 0.3 mm 4 mps 754 mmHg 83%
    17:00 +28°C° 0.3 mm 4 mps 754 mmHg 84%
    18:00 +28°C° 0.2 mm 4 mps 755 mmHg 85%
    19:00 +27°C° 0.2 mm 4 mps 756 mmHg 87%
    20:00 +27°C° 0.2 mm 4 mps 756 mmHg 88%
    21:00 +27°C° 0.3 mm 4 mps 756 mmHg 88%
    22:00 +27°C° 0.3 mm 3 mps 756 mmHg 88%
    23:00 +27°C° 0.3 mm 3 mps 756 mmHg 88%

    22 August, Thursday

    Time Temperature Precipitation Wind Pressure Humidity
    00:00 +27°C° 0.5 mm 3 mps 756 mmHg 89%
    01:00 +27°C° 0.5 mm 3 mps 755 mmHg 90%
    02:00 +26°C° 0.5 mm 3 mps 755 mmHg 91%
    03:00 +26°C° 0.7 mm 3 mps 755 mmHg 91%
    04:00 +26°C° 0.7 mm 2 mps 755 mmHg 91%
    05:00 +26°C° 0.7 mm 1 mps 755 mmHg 91%
    06:00 +27°C° 0.5 mm 1 mps 755 mmHg 88%
    07:00 +27°C° 0.5 mm 1 mps 755 mmHg 86%
    08:00 +28°C° 0.5 mm 1 mps 756 mmHg 84%
    09:00 +28°C° 1.4 mm 2 mps 756 mmHg 83%
    10:00 +28°C° 1.4 mm 3 mps 756 mmHg 83%
    11:00 +28°C° 1.4 mm 4 mps 756 mmHg 83%
    12:00 +28°C° 1.6 mm 5 mps 756 mmHg 85%
    13:00 +27°C° 1.6 mm 6 mps 755 mmHg 87%
    14:00 +27°C° 1.6 mm 6 mps 755 mmHg 89%
    15:00 +27°C° 2.1 mm 7 mps 755 mmHg 91%
    16:00 +26°C° 2.1 mm 7 mps 755 mmHg 92%
    17:00 +26°C° 2.1 mm 7 mps 755 mmHg 93%
    18:00 +26°C° 2.4 mm 7 mps 755 mmHg 93%
    19:00 +26°C° 2.4 mm 7 mps 756 mmHg 92%
    20:00 +26°C° 2.4 mm 7 mps 756 mmHg 91%
    21:00 +26°C° 0.2 mm 8 mps 756 mmHg 91%
    22:00 +26°C° 0.2 mm 8 mps 756 mmHg 90%
    23:00 +26°C° 0.2 mm 9 mps 757 mmHg 89%

    23 August, Friday

    Time Temperature Precipitation Wind Pressure Humidity
    00:00 +26°C° 0.3 mm 8 mps 756 mmHg 90%
    01:00 +26°C° 0.3 mm 7 mps 756 mmHg 90%
    02:00 +26°C° 0.3 mm 6 mps 756 mmHg 90%
    03:00 +26°C° 0.5 mm 6 mps 756 mmHg 90%
    04:00 +26°C° 0.5 mm 6 mps 756 mmHg 89%
    05:00 +26°C° 0.5 mm 7 mps 756 mmHg 89%
    06:00 +27°C° 0.5 mm 7 mps 757 mmHg 87%
    07:00 +27°C° 0.5 mm 7 mps 757 mmHg 85%
    08:00 +28°C° 0.5 mm 7 mps 757 mmHg 83%
    09:00 +28°C° 0.2 mm 7 mps 757 mmHg 80%
    10:00 +29°C° 0.2 mm 8 mps 757 mmHg 77%
    11:00 +31°C° 0.2 mm 8 mps 757 mmHg 74%
    12:00 +31°C° 0.2 mm 8 mps 757 mmHg 74%
    13:00 +31°C° 0.2 mm 9 mps 756 mmHg 74%
    14:00 +31°C° 0.2 mm 9 mps 756 mmHg 73%
    15:00 +31°C° 0 mm 9 mps 756 mmHg 75%
    16:00 +29°C° 0 mm 8 mps 756 mmHg 77%
    17:00 +29°C° 0 mm 7 mps 755 mmHg 78%
    18:00 +28°C° 0.1 mm 7 mps 756 mmHg 80%
    19:00 +28°C° 0.1 mm 6 mps 757 mmHg 82%
    20:00 +28°C° 0.1 mm 6 mps 757 mmHg 83%
    21:00 +27°C° 1.2 mm 6 mps 757 mmHg 84%
    22:00 +27°C° 1.2 mm 6 mps 757 mmHg 85%
    23:00 +27°C° 1.2 mm 6 mps 758 mmHg 86%

    24 August, Saturday

    Time Temperature Precipitation Wind Pressure Humidity
    00:00 +27°C° 3 mm 6 mps 757 mmHg 87%
    01:00 +27°C° 3 mm 6 mps 757 mmHg 87%
    02:00 +27°C° 3 mm 7 mps 756 mmHg 87%
    03:00 +27°C° 3.7 mm 7 mps 756 mmHg 88%
    04:00 +26°C° 3.7 mm 7 mps 756 mmHg 89%
    05:00 +26°C° 3.7 mm 7 mps 756 mmHg 90%
    06:00 +26°C° 4.9 mm 6 mps 756 mmHg 92%
    07:00 +26°C° 4.9 mm 6 mps 757 mmHg 93%
    08:00 +26°C° 4.9 mm 5 mps 757 mmHg 94%
    09:00 +26°C° 12 mm 5 mps 757 mmHg 95%
    10:00 +26°C° 12 mm 5 mps 757 mmHg 95%
    11:00 +26°C° 12 mm 4 mps 757 mmHg 96%
    12:00 +26°C° 13.7 mm 4 mps 757 mmHg 95%
    13:00 +26°C° 13.7 mm 5 mps 756 mmHg 95%
    14:00 +26°C° 13.7 mm 5 mps 756 mmHg 95%
    15:00 +26°C° 7.5 mm 6 mps 756 mmHg 94%
    16:00 +26°C° 7.5 mm 7 mps 756 mmHg 94%
    17:00 +26°C° 7.5 mm 7 mps 756 mmHg 94%
    18:00 +26°C° 1.6 mm 7 mps 756 mmHg 94%
    19:00 +26°C° 1.6 mm 6 mps 757 mmHg 94%
    20:00 +26°C° 1.6 mm 5 mps 757 mmHg 94%
    21:00 +26°C° 0.9 mm 5 mps 757 mmHg 93%
    22:00 +26°C° 0.9 mm 6 mps 757 mmHg 93%
    23:00 +26°C° 0.9 mm 6 mps 757 mmHg 92%
    Show more